Location: Unspecified
(40.7945°N, 111.1337°W)
Time: 10:49:26
(UTC-06:00)

Vanguard 1 - Pass Details

Date: 03 July 2019
Orbit: 653 x 3830 km, 34.3° (Epoch: 20 July)

Event Time Altitude Azimuth Distance (km) Brightness Sun altitude
Rises 07:53:01 0° 282° (WNW) 6,814 13.8 19.2°
Reaches altitude 10° 07:59:32 10° 270° (W) 5,184 13.2 20.4°
Maximum altitude 08:08:43 21° 229° (SW) 3,332 12.4 22.1°
Drops below altitude 10° 08:15:02 10° 183° (S) 3,395 12.8 23.2°
Sets 08:18:11 0° 166° (SSE) 3,984 13.2 23.8°
